SQ4IXR-4 Weather Reports


time (UTC)temp
C
wind
direction
speed
KPH
gust
KPH
rain 1hr
cm
rain 24hr
cm
rain mn
cm
humidity
%
barometer
mb
20260507050418 18 0.0 0.0 0.00 0.00 0.00 65 1009.9
20260507045030 17 0.0 0.0 0.00 0.00 0.00 74 1009.8
20260507043647 17 0.0 0.0 0.00 0.00 0.00 74 1009.7
20260507042306 17 0.0 0.0 0.00 0.00 0.00 78 1009.6
20260507040918 16 0.0 0.0 0.00 0.00 0.00 77 1009.7
20260507035533 16 0.0 0.0 0.00 0.00 0.00 79 1009.4
20260507034149 16 0.0 0.0 0.00 0.00 0.00 80 1009.3
20260507032805 16 0.0 0.0 0.00 0.00 0.00 85 1009.5
20260507031421 16 0.0 0.0 0.00 0.00 0.00 86 1009.6
20260507030037 15 0.0 0.0 0.00 0.00 0.00 94 1009.6
20260507024653 15 0.0 0.0 0.00 0.00 0.00 10 1009.7
20260507023311 15 0.0 0.0 0.00 0.00 0.00 93 1009.7
20260507021927 15 0.0 0.0 0.00 0.00 0.00 93 1009.5
20260507020544 15 0.0 0.0 0.00 0.00 0.00 93 1009.5
20260507015201 15 0.0 0.0 0.00 0.00 0.00 93 1009.6
20260507013816 15 0.0 0.0 0.00 0.00 0.00 95 1009.7
20260507012432 15 0.0 0.0 0.00 0.00 0.00 98 1009.7
20260507011046 14 0.0 0.0 0.00 0.00 0.00 10 1009.8
20260507005703 13 0.0 0.0 0.00 0.00 0.00 10 1009.9
20260507004319 14 0.0 0.0 0.00 0.00 0.00 10 1009.9
20260507002936 14 0.0 0.0 0.00 0.00 0.00 10 1009.9
20260507001553 14 0.0 0.0 0.00 0.00 0.00 10 1010.0
20260507000212 14 0.0 0.0 0.00 0.00 0.00 10 1010.0
20260506234827 14 0.0 0.0 0.00 0.00 0.00 10 1010.0
20260506233444 15 0.0 0.0 0.00 0.00 0.00 10 1010.2
20260506230717 15 0.0 0.0 0.00 0.00 0.00 93 1010.2
20260506225334 15 0.0 0.0 0.00 0.00 0.00 93 1010.2
20260506223950 15 0.0 0.0 0.00 0.00 0.00 93 1010.3
20260506222607 15 0.0 0.0 0.00 0.00 0.00 92 1010.2
20260506221223 15 0.0 0.0 0.00 0.00 0.00 90 1010.2
20260506215841 15 0.0 0.0 0.00 0.00 0.00 92 1010.1
20260506214456 15 0.0 0.0 0.00 0.00 0.00 90 1010.1
20260506213113 15 0.0 0.0 0.00 0.00 0.00 89 1010.1
20260506211729 16 0.0 0.0 0.00 0.00 0.00 88 1010.0
20260506210347 16 0.0 0.0 0.00 0.00 0.00 87 1010.0
20260506205004 16 0.0 0.0 0.00 0.00 0.00 83 1009.9
20260506203622 16 0.0 0.0 0.00 0.00 0.00 80 1009.9
20260506202241 16 0.0 0.0 0.00 0.00 0.00 78 1009.9
20260506200856 17 0.0 0.0 0.00 0.00 0.00 74 1009.7
20260506195508 17 0.0 0.0 0.00 0.00 0.00 69 1009.8
20260506194126 17 0.0 0.0 0.00 0.00 0.00 66 1010.0
20260506192742 18 0.0 0.0 0.00 0.00 0.00 64 1009.8
20260506191359 18 0.0 0.0 0.00 0.00 0.00 62 1009.8
20260506190019 18 0.0 0.0 0.00 0.00 0.00 61 1009.8
20260506184634 18 0.0 0.0 0.00 0.00 0.00 59 1009.5
20260506183251 19 0.0 0.0 0.00 0.00 0.00 57 1009.3
20260506181906 20 0.0 0.0 0.00 0.00 0.00 55 1009.1
20260506180521 20 0.0 0.0 0.00 0.00 0.00 51 1008.8
20260506175138 21 0.0 0.0 0.00 0.00 0.00 48 1008.6
20260506173755 22 0.0 0.0 0.00 0.00 0.00 45 1008.4
20260506172411 22 0.0 0.0 0.00 0.00 0.00 44 1008.3
20260506171032 22 0.0 0.0 0.00 0.00 0.00 42 1008.2
20260506165646 23 0.0 0.0 0.00 0.00 0.00 41 1008.0
20260506164302 23 0.0 0.0 0.00 0.00 0.00 38 1007.8
20260506162919 24 0.0 0.0 0.00 0.00 0.00 37 1007.8
20260506161536 24 0.0 0.0 0.00 0.00 0.00 35 1007.7
20260506160155 25 0.0 0.0 0.00 0.00 0.00 34 1007.5
20260506154813 26 0.0 0.0 0.00 0.00 0.00 32 1007.4
20260506153432 27 0.0 0.0 0.00 0.00 0.00 30 1007.2
20260506152045 26 0.0 0.0 0.00 0.00 0.00 31 1007.3
20260506150702 26 0.0 0.0 0.00 0.00 0.00 30 1007.2
20260506145321 27 0.0 0.0 0.00 0.00 0.00 29 1007.0
20260506143936 27 0.0 0.0 0.00 0.00 0.00 28 1007.0
20260506142554 27 0.0 0.0 0.00 0.00 0.00 26 1006.9
20260506141212 28 0.0 0.0 0.00 0.00 0.00 24 1006.5
20260506135828 29 0.0 0.0 0.00 0.00 0.00 23 1006.6
20260506134442 28 0.0 0.0 0.00 0.00 0.00 23 1006.4
20260506133058 28 0.0 0.0 0.00 0.00 0.00 24 1006.5
20260506131711 27 0.0 0.0 0.00 0.00 0.00 24 1006.7
20260506130329 28 0.0 0.0 0.00 0.00 0.00 23 1006.8
20260506124945 29 0.0 0.0 0.00 0.00 0.00 22 1006.9
20260506123557 28 0.0 0.0 0.00 0.00 0.00 23 1006.9
20260506122220 30 0.0 0.0 0.00 0.00 0.00 20 1006.8
20260506120841 31 0.0 0.0 0.00 0.00 0.00 22 1006.7
20260506115441 33 0.0 0.0 0.00 0.00 0.00 20 1006.7
20260506114055 32 0.0 0.0 0.00 0.00 0.00 22 1007.0
20260506112712 28 0.0 0.0 0.00 0.00 0.00 26 1007.5
20260506111334 30 0.0 0.0 0.00 0.00 0.00 24 1007.7
20260506105944 29 0.0 0.0 0.00 0.00 0.00 25 1007.9
20260506104558 28 0.0 0.0 0.00 0.00 0.00 27 1008.2
20260506103213 28 0.0 0.0 0.00 0.00 0.00 31 1008.1
20260506101829 28 0.0 0.0 0.00 0.00 0.00 32 1008.4
20260506100455 33 0.0 0.0 0.00 0.00 0.00 25 1008.3
20260506095106 29 0.0 0.0 0.00 0.00 0.00 31 1008.6
20260506093721 28 0.0 0.0 0.00 0.00 0.00 33 1008.9
20260506092349 30 0.0 0.0 0.00 0.00 0.00 30 1008.8
20260506091007 32 0.0 0.0 0.00 0.00 0.00 26 1008.8
20260506085638 45 0.0 0.0 0.00 0.00 0.00 14 1008.2
20260506084300 46 0.0 0.0 0.00 0.00 0.00 14 1008.4
20260506082912 44 0.0 0.0 0.00 0.00 0.00 15 1008.3
20260506081521 41 0.0 0.0 0.00 0.00 0.00 18 1008.7
20260506080148 43 0.0 0.0 0.00 0.00 0.00 16 1008.5
20260506073329 28 0.0 0.0 0.00 0.00 0.00 35 1009.4
20260506071945 24 0.0 0.0 0.00 0.00 0.00 43 1009.9
20260506070624 32 0.0 0.0 0.00 0.00 0.00 27 1009.5
20260506062436 18 0.0 0.0 0.00 0.00 0.00 69 1010.6
20260506061051 18 0.0 0.0 0.00 0.00 0.00 70 1010.7